Hourly Data Report for April 05, 2017

All times are specified in Local Standard Time (LST). Add 1 hour to adjust for Daylight Saving Time where and when it is observed.

TORONTO CITY
ONTARIO

43°40'00.000" N
79°24'00.000" W
112.50 m
6158355
71508
XTO

Download Data

Hourly Data (April 2017)
Hourly Data Report for April 5, 2017
TIME Temp Definition
°C
Dew Point Definition
°C
Rel Hum Definition
%
Wind Dir Definition
10's deg

Wind Spd Definition
km/h
Visibility Definition
km
Stn Press Definition
kPa
Hmdx Definition


Wind Chill Definition


Weather Definition


00:00 5.5 1.3 75 LegendMM LegendMM   99.43     LegendNANA
01:00 5.1 1.7 79 LegendMM LegendMM   99.52     LegendNANA
02:00 5.1 2.0 80 LegendMM LegendMM   99.56     LegendNANA
03:00 5.6 2.1 78 LegendMM LegendMM   99.74     LegendNANA
04:00 5.7 1.7 76 LegendMM LegendMM   99.85     LegendNANA
05:00 5.7 1.5 74 LegendMM LegendMM   99.90     LegendNANA
06:00 5.7 1.8 76 LegendMM LegendMM   99.98     LegendNANA
07:00 5.8 1.5 74 LegendMM LegendMM   100.07     LegendNANA
08:00 6.2 1.3 71 LegendMM LegendMM   100.14     LegendNANA
09:00 6.7 1.5 69 LegendMM LegendMM   100.11     LegendNANA
10:00 7.8 2.1 67 LegendMM LegendMM   100.11     LegendNANA
11:00 7.6 1.9 67 LegendMM LegendMM   100.16     LegendNANA
12:00 8.7 2.4 64 LegendMM LegendMM   100.10     LegendNANA
13:00 8.1 1.7 64 LegendMM LegendMM   100.08     LegendNANA
14:00 7.3 1.1 65 LegendMM LegendMM   99.98     LegendNANA
15:00 6.6 1.3 69 LegendMM LegendMM   99.94     LegendNANA
16:00 6.8 1.2 67 LegendMM LegendMM   99.85     LegendNANA
17:00 6.9 1.0 66 LegendMM LegendMM   99.80     LegendNANA
18:00 6.5 1.1 68 LegendMM LegendMM   99.76     LegendNANA
19:00 6.0 1.2 71 LegendMM LegendMM   99.70     LegendNANA
20:00 6.1 1.1 70 LegendMM LegendMM   99.66     LegendNANA
21:00 6.4 1.0 69 LegendMM LegendMM   99.60     LegendNANA
22:00 6.0 1.3 72 LegendMM LegendMM   99.48     LegendNANA
23:00 6.1 2.0 75 LegendMM LegendMM   99.38     LegendNANA

Notes on Data Quality.

Legend

  • E = Estimated
  • M = Missing
  • NA = Not Available
Date modified: